Hourly Weather Bolshoe Shevelevo

Today, 24 July, Saturday

Time Temperature Precipitation Wind Pressure Humidity
00:00 +10°C° 0.1 mm 2 mps 740 mmHg 86%
01:00 +10°C° 0.1 mm 2 mps 740 mmHg 88%
02:00 +11°C° 0 mm 1 mps 740 mmHg 90%
03:00 +11°C° 0 mm 1 mps 741 mmHg 89%
04:00 +11°C° 0 mm 1 mps 741 mmHg 88%
05:00 +12°C° 0 mm 1 mps 741 mmHg 87%
06:00 +13°C° 0.1 mm 1 mps 742 mmHg 81%
07:00 +14°C° 0.1 mm 1 mps 742 mmHg 74%
08:00 +14°C° 0 mm 1 mps 742 mmHg 69%
09:00 +16°C° 0 mm 2 mps 742 mmHg 59%
10:00 +18°C° 0 mm 2 mps 743 mmHg 49%
11:00 +19°C° 0 mm 2 mps 743 mmHg 38%
12:00 +19°C° 0 mm 2 mps 743 mmHg 38%
13:00 +19°C° 0 mm 2 mps 743 mmHg 38%
14:00 +19°C° 0 mm 2 mps 743 mmHg 38%
15:00 +20°C° 0 mm 2 mps 743 mmHg 37%
16:00 +20°C° 0 mm 2 mps 743 mmHg 37%
17:00 +20°C° 0 mm 2 mps 743 mmHg 36%
18:00 +19°C° 0 mm 2 mps 744 mmHg 41%
19:00 +17°C° 0 mm 2 mps 744 mmHg 47%
20:00 +16°C° 0 mm 2 mps 744 mmHg 53%
21:00 +15°C° 0 mm 2 mps 744 mmHg 55%
22:00 +14°C° 0 mm 2 mps 745 mmHg 57%
23:00 +14°C° 0 mm 1 mps 745 mmHg 60%

Tomorrow, 25 July, Sunday

Time Temperature Precipitation Wind Pressure Humidity
00:00 +13°C° 0 mm 1 mps 745 mmHg 62%
01:00 +12°C° 0 mm 2 mps 745 mmHg 64%
02:00 +10°C° 0 mm 2 mps 746 mmHg 66%
03:00 +11°C° 0 mm 1 mps 746 mmHg 65%
04:00 +12°C° 0 mm 1 mps 746 mmHg 63%
05:00 +12°C° 0 mm 1 mps 747 mmHg 62%
06:00 +14°C° 0 mm 1 mps 747 mmHg 56%
07:00 +16°C° 0 mm 1 mps 747 mmHg 49%
08:00 +19°C° 0 mm 1 mps 747 mmHg 43%
09:00 +20°C° 0 mm 1 mps 747 mmHg 40%
10:00 +22°C° 0 mm 1 mps 747 mmHg 36%
11:00 +23°C° 0 mm 2 mps 748 mmHg 33%
12:00 +23°C° 0 mm 2 mps 748 mmHg 35%
13:00 +23°C° 0 mm 2 mps 747 mmHg 36%
14:00 +23°C° 0 mm 2 mps 747 mmHg 38%
15:00 +23°C° 0 mm 2 mps 747 mmHg 43%
16:00 +21°C° 0 mm 2 mps 747 mmHg 49%
17:00 +20°C° 0 mm 2 mps 748 mmHg 54%
18:00 +19°C° 0 mm 2 mps 748 mmHg 57%
19:00 +18°C° 0 mm 2 mps 748 mmHg 61%
20:00 +17°C° 0 mm 2 mps 748 mmHg 64%
21:00 +17°C° 0 mm 2 mps 748 mmHg 67%
22:00 +16°C° 0 mm 2 mps 748 mmHg 70%
23:00 +15°C° 0 mm 2 mps 748 mmHg 72%

Day after tomorrow, 26 July, Monday

Time Temperature Precipitation Wind Pressure Humidity
00:00 +15°C° 0 mm 2 mps 748 mmHg 70%
01:00 +15°C° 0 mm 2 mps 749 mmHg 68%
02:00 +15°C° 0 mm 2 mps 749 mmHg 66%
03:00 +15°C° 0 mm 2 mps 749 mmHg 67%
04:00 +15°C° 0 mm 2 mps 749 mmHg 68%
05:00 +15°C° 0 mm 1 mps 749 mmHg 69%
06:00 +17°C° 0 mm 2 mps 749 mmHg 63%
07:00 +19°C° 0 mm 2 mps 749 mmHg 57%
08:00 +21°C° 0 mm 2 mps 749 mmHg 51%
09:00 +23°C° 0 mm 2 mps 749 mmHg 46%
10:00 +25°C° 0 mm 2 mps 749 mmHg 40%
11:00 +27°C° 0 mm 2 mps 749 mmHg 35%
12:00 +27°C° 0 mm 2 mps 749 mmHg 35%
13:00 +27°C° 0 mm 2 mps 749 mmHg 36%
14:00 +27°C° 0 mm 2 mps 749 mmHg 37%
15:00 +27°C° 0 mm 2 mps 749 mmHg 39%
16:00 +27°C° 0 mm 2 mps 749 mmHg 40%
17:00 +27°C° 0 mm 2 mps 748 mmHg 42%
18:00 +25°C° 0 mm 2 mps 748 mmHg 48%
19:00 +23°C° 0 mm 2 mps 748 mmHg 53%
20:00 +21°C° 0 mm 1 mps 748 mmHg 59%
21:00 +20°C° 0 mm 1 mps 748 mmHg 61%
22:00 +19°C° 0 mm 2 mps 748 mmHg 64%
23:00 +18°C° 0 mm 2 mps 749 mmHg 66%

27 July, Tuesday

Time Temperature Precipitation Wind Pressure Humidity
00:00 +18°C° 0 mm 2 mps 749 mmHg 69%
01:00 +17°C° 0 mm 2 mps 749 mmHg 72%
02:00 +16°C° 0 mm 2 mps 749 mmHg 75%
03:00 +16°C° 0 mm 2 mps 749 mmHg 75%
04:00 +16°C° 0 mm 1 mps 749 mmHg 75%
05:00 +18°C° 0 mm 1 mps 749 mmHg 75%
06:00 +20°C° 0 mm 1 mps 749 mmHg 67%
07:00 +22°C° 0 mm 1 mps 749 mmHg 59%
08:00 +25°C° 0 mm 1 mps 749 mmHg 51%
09:00 +26°C° 0 mm 1 mps 749 mmHg 46%
10:00 +27°C° 0 mm 2 mps 749 mmHg 41%
11:00 +28°C° 0 mm 2 mps 748 mmHg 37%
12:00 +28°C° 0 mm 2 mps 748 mmHg 37%
13:00 +28°C° 0 mm 2 mps 748 mmHg 38%
14:00 +28°C° 0 mm 2 mps 747 mmHg 39%
15:00 +26°C° 0.1 mm 2 mps 747 mmHg 46%
16:00 +25°C° 0.1 mm 2 mps 747 mmHg 53%
17:00 +23°C° 0.1 mm 2 mps 747 mmHg 60%
18:00 +21°C° 0.1 mm 2 mps 747 mmHg 66%
19:00 +20°C° 0.1 mm 2 mps 747 mmHg 72%
20:00 +19°C° 0.1 mm 2 mps 747 mmHg 78%
21:00 +19°C° 0 mm 1 mps 747 mmHg 79%
22:00 +18°C° 0 mm 1 mps 747 mmHg 80%
23:00 +18°C° 0 mm 1 mps 747 mmHg 81%

28 July, Wednesday

Time Temperature Precipitation Wind Pressure Humidity
00:00 +18°C° 0 mm 1 mps 747 mmHg 81%
01:00 +18°C° 0 mm 1 mps 747 mmHg 81%
02:00 +16°C° 0 mm 1 mps 746 mmHg 82%
03:00 +18°C° 0 mm 1 mps 746 mmHg 82%
04:00 +18°C° 0 mm 1 mps 746 mmHg 81%
05:00 +18°C° 0 mm 1 mps 746 mmHg 81%
06:00 +21°C° 0 mm 1 mps 746 mmHg 72%
07:00 +23°C° 0 mm 1 mps 745 mmHg 63%
08:00 +25°C° 0 mm 1 mps 745 mmHg 54%
09:00 +27°C° 0 mm 1 mps 745 mmHg 48%
10:00 +28°C° 0 mm 1 mps 744 mmHg 43%
11:00 +30°C° 0 mm 2 mps 744 mmHg 37%
12:00 +29°C° 0 mm 1 mps 744 mmHg 38%
13:00 +29°C° 0 mm 1 mps 743 mmHg 39%
14:00 +29°C° 0 mm 1 mps 743 mmHg 41%
15:00 +28°C° 0 mm 2 mps 742 mmHg 43%
16:00 +27°C° 0 mm 2 mps 742 mmHg 46%
17:00 +27°C° 0 mm 2 mps 742 mmHg 48%
18:00 +25°C° 0 mm 2 mps 742 mmHg 55%
19:00 +23°C° 0 mm 2 mps 741 mmHg 61%
20:00 +21°C° 0 mm 2 mps 741 mmHg 67%
21:00 +20°C° 0.2 mm 2 mps 741 mmHg 73%
22:00 +19°C° 0.2 mm 2 mps 741 mmHg 79%
23:00 +19°C° 0.2 mm 1 mps 741 mmHg 84%

29 July, Thursday

Time Temperature Precipitation Wind Pressure Humidity
00:00 +19°C° 0.3 mm 1 mps 741 mmHg 87%
01:00 +19°C° 0.3 mm 1 mps 740 mmHg 89%
02:00 +18°C° 0.3 mm 1 mps 740 mmHg 91%
03:00 +19°C° 0.1 mm 1 mps 740 mmHg 91%
04:00 +19°C° 0.1 mm 1 mps 740 mmHg 91%
05:00 +19°C° 0.1 mm 1 mps 740 mmHg 91%
06:00 +19°C° 0.1 mm 1 mps 740 mmHg 91%
07:00 +19°C° 0.1 mm 1 mps 740 mmHg 91%
08:00 +19°C° 0.1 mm 1 mps 740 mmHg 91%
09:00 +20°C° 0 mm 1 mps 740 mmHg 87%
10:00 +21°C° 0 mm 1 mps 740 mmHg 84%
11:00 +21°C° 0 mm 1 mps 740 mmHg 80%
12:00 +22°C° 0 mm 1 mps 740 mmHg 74%
13:00 +23°C° 0 mm 1 mps 740 mmHg 69%
14:00 +24°C° 0 mm 2 mps 740 mmHg 63%
15:00 +25°C° 0 mm 2 mps 739 mmHg 61%
16:00 +25°C° 0 mm 2 mps 739 mmHg 59%
17:00 +25°C° 0 mm 2 mps 739 mmHg 56%
18:00 +24°C° 0 mm 2 mps 739 mmHg 64%
19:00 +22°C° 0 mm 1 mps 739 mmHg 71%
20:00 +20°C° 0 mm 1 mps 739 mmHg 79%
21:00 +20°C° 0.2 mm 1 mps 739 mmHg 82%
22:00 +19°C° 0.2 mm 1 mps 739 mmHg 86%
23:00 +18°C° 0.2 mm 2 mps 739 mmHg 90%
Show more

We Need Your Consent

Meteoprog and our Service Providers may store and access personal data such as cookies, device identifiers or other similar technologies on your device and process such data to personalise content and ads, as well as provide social media features and to analyse the traffic.

  • Store and/or access information on your device

    Cookies, device identifiers or other information can be stored or accessed on your device for the purposes indicated above.

  • Personalised ads and content, ad and content measurement, audience insights, and products development

    Ads and content can be personalised based on a profile. More data can be added to better personalise ads and content. Ad and content performance can be measured. Insights about the audience who saw the ads and content can be derived. Such data can be used to develop or improve user’s experience, systems and software.

By clicking ‘I Agree’ you will allow the use of indicated cookies, device identifiers, web beacons or other similar technologies. Your settings can be changed in the browser on your device.

For certain purposes, legitimate interests may be relied on, rather than consent. You can read more about this in our Privacy and Cookie Policy.